CST,Max TemperatureF,Mean TemperatureF,Min TemperatureF,Max Dew PointF,MeanDew PointF,Min DewpointF,Max Humidity, Mean Humidity, Min Humidity, Max Sea Level PressureIn, Mean Sea Level PressureIn, Min Sea Level PressureIn, Max VisibilityMiles, Mean VisibilityMiles, Min VisibilityMiles, Max Wind SpeedMPH, Mean Wind SpeedMPH, Max Gust SpeedMPH,PrecipitationIn, CloudCover, Events, WindDirDegrees
2013-2-1,66,56,46,54,48,37,87,65,49,30.34,30.24,30.15,15,13,10,16,5,,0.00,5,,116
2013-2-2,78,66,55,54,48,39,88,52,27,30.26,30.19,30.07,15,9,4,10,5,,0.00,3,,125
2013-2-3,71,63,55,59,53,48,94,68,43,30.31,30.17,30.02,15,8,0,18,5,,0.00,6,Fog,114
2013-2-4,91,73,55,54,50,46,88,50,23,30.01,29.88,29.74,15,14,10,12,4,,0.00,2,,128
2013-2-5,89,74,60,59,52,46,72,44,27,30.01,29.90,29.76,15,14,8,16,6,,0.00,4,,138
2013-2-6,82,74,66,57,53,48,64,48,30,29.98,29.87,29.73,12,11,10,8,2,,0.00,1,,122
2013-2-7,89,74,60,63,59,50,100,67,26,30.05,29.94,29.78,15,6,0,16,3,,0.00,4,Fog,109
2013-2-8,68,66,64,59,53,48,73,65,52,30.21,30.11,30.01,12,10,7,26,10,,0.00,7,,143
2013-2-9,78,69,60,63,60,57,100,74,47,30.03,29.88,29.74,10,5,1,15,3,,0.00,4,,126
2013-2-10,89,74,59,63,48,41,100,44,19,29.95,29.82,29.70,15,10,5,21,5,,0.00,4,,15
2013-2-11,80,68,57,54,44,37,68,42,28,30.02,29.90,29.77,15,9,6,16,8,,0.00,1,,71
2013-2-12,80,70,59,61,51,45,82,57,38,30.03,29.89,29.75,15,7,4,21,7,,0.00,6,,12
2013-2-13,75,65,55,34,26,16,39,25,14,30.18,30.07,29.96,15,13,10,26,14,,0.00,3,,108
2013-2-14,77,62,46,39,33,27,54,35,19,30.19,30.06,29.96,15,12,7,12,3,,0.00,0,,123
2013-2-15,71,58,46,50,44,36,76,50,40,30.28,30.14,30.02,15,13,12,15,6,,0.00,5,,77
2013-2-16,64,58,51,39,35,28,58,42,32,30.50,30.36,30.26,15,14,12,17,10,,0.00,2,,96
2013-2-17,75,60,46,50,44,39,76,56,31,30.22,30.07,29.91,15,10,7,15,4,,0.00,2,,128
2013-2-18,93,73,53,52,39,28,82,35,10,30.03,29.91,29.74,12,11,8,23,6,34,0.00,1,,318
2013-2-19,77,68,60,61,54,43,83,58,46,30.17,30.04,29.89,12,10,8,18,6,,0.00,7,,100
2013-2-20,86,75,64,63,59,55,94,60,39,29.94,29.75,29.45,10,7,5,14,7,,0.00,5,,132
2013-2-21,96,78,60,57,40,32,88,33,12,29.88,29.71,29.54,12,9,5,23,7,,0.00,6,,347
2013-2-22,82,70,59,57,41,28,73,36,19,30.01,29.86,29.73,15,10,7,13,6,,0.00,4,,77
2013-2-23,77,70,62,50,46,43,63,44,33,30.04,29.93,29.83,15,10,7,16,5,,0.00,5,,102
2013-2-24,77,68,59,55,54,50,82,61,39,29.88,29.73,29.61,12,8,6,12,4,,0.00,5,,117
2013-2-25,75,68,60,39,11,-9,42,13,4,29.95,29.77,29.65,12,7,2,37,18,40,0.00,2,,346
2013-2-26,78,63,48,27,20,10,38,20,9,30.07,29.94,29.82,15,13,10,14,7,,0.00,2,,136
2013-2-27,75,62,50,57,21,10,60,22,10,30.20,30.07,29.86,15,11,7,29,9,40,0.00,2,,348
2013-2-28,69,60,50,32,23,16,47,25,16,30.34,30.25,30.13,15,14,10,16,8,,0.00,2,,112